Location: Sawmill Trailhead
(33.5800°N, 116.4497°W)
Time: 22:52:33
(UTC-08:00)

Amateur Radio Satellites - All Passes

Search period start: 16 January 2017 22:22
Search period end: 17 January 2017 22:22
Location: Sawmill Trailhead, 33.5800°N, 116.4497°W

Satellite Date Start Highest point End Downlink Frequencies (MHz)
Time Altitude Azimuth
JAS-2 16 Jan 22:24:40 22:31:42 55° 100° (E) 22:39:15 435.910
DX 1 16 Jan 22:26:45 22:28:07 11° 65° (ENE) 22:29:27 434.975-435.025
DUCHIFAT 1 16 Jan 22:30:15 22:32:11 13° 94° (E) 22:34:07 145.980
NANOSAT C BR1 16 Jan 22:33:01 22:35:35 16° 94° (E) 22:38:09 145.865
CUBEBUG 1 16 Jan 22:34:44 22:39:02 52° 75° (ENE) 22:43:20 437.445
SPROUT 16 Jan 22:38:08 22:41:30 23° 71° (ENE) 22:44:51 437.525
50 SAT 16 Jan 22:38:59 22:41:43 21° 71° (ENE) 22:44:28 437.505
UNISAT 6 16 Jan 22:40:03 22:43:50 28° 288° (WNW) 22:47:41 437.425
AISAT 16 Jan 22:40:30 22:44:38 38° 73° (ENE) 22:48:46 437.250
ESTCUBE 1 16 Jan 22:44:51 22:49:20 66° 259° (W) 22:53:52 437.505/2401.250
TIGRISAT 16 Jan 22:55:05 22:58:25 21° 290° (WNW) 23:01:47 435.000
ANTELSAT 16 Jan 23:10:09 23:12:29 14° 292° (WNW) 23:14:48 437.575/2403.000
VELOX 1 16 Jan 23:13:46 23:18:14 89° 269° (W) 23:22:41 145.980
AO-85 16 Jan 23:19:03 23:22:44 39° 58° (ENE) 23:26:25 145.980
BUGSAT 1 16 Jan 23:20:47 23:23:26 17° 95° (E) 23:26:07 437.445
QB50P1 16 Jan 23:21:22 23:25:34 71° 103° (ESE) 23:29:46 145.935-145.965
POLYITAN 1 16 Jan 23:24:10 23:28:24 78° 102° (ESE) 23:32:38 437.675
QB50P2 16 Jan 23:25:16 23:29:30 87° 105° (ESE) 23:33:44 145.880/145.840
RS-15 16 Jan 23:28:46 23:40:22 73° 113° (ESE) 23:52:34 29.354- 29.394
ISS 16 Jan 23:41:31 23:44:06 22° 325° (NW) 23:46:43 145.825
YUBILEINY 16 Jan 23:43:45 23:47:47 14° 65° (ENE) 23:51:48 435.215
POPSAT HIP 1 16 Jan 23:47:57 23:52:03 53° 285° (WNW) 23:56:10 437.405
DX 1 16 Jan 23:59:29 00:03:46 54° 259° (W) 00:08:04 434.975-435.025
DUCHIFAT 1 17 Jan 00:04:03 00:07:58 39° 287° (WNW) 00:11:53 145.980
Oscar 19 17 Jan 00:04:23 00:07:18 15° 93° (E) 00:10:10 437.125/150
UKube-1 17 Jan 00:06:39 00:10:55 63° 258° (WSW) 00:15:13 .
NANOSAT C BR1 17 Jan 00:07:35 00:11:20 32° 288° (WNW) 00:15:06 145.865
JAS-2 17 Jan 00:10:34 00:16:18 27° 293° (WNW) 00:22:24 435.910
50 SAT 17 Jan 00:12:27 00:14:50 17° 265° (W) 00:17:13 437.505
SPROUT 17 Jan 00:13:52 00:17:17 23° 264° (W) 00:20:43 437.525
CUBEBUG 1 17 Jan 00:14:25 00:15:33 11° 268° (W) 00:16:40 437.445
AISAT 17 Jan 00:18:36 00:21:11 15° 266° (W) 00:23:47 437.250
TISAT 1 17 Jan 00:19:37 00:23:38 47° 74° (ENE) 00:27:39 437.305
Cosmos 2491 17 Jan 00:27:23 00:31:45 15° 79° (E) 00:36:07 435.465 / 435.565
BEESAT 17 Jan 00:42:49 00:45:48 17° 67° (ENE) 00:48:48 436.000
SWISSCUBE 17 Jan 00:43:37 00:46:57 19° 68° (ENE) 00:50:18 437.505
PCSat 17 Jan 00:47:11 00:52:33 71° 113° (ESE) 00:57:57 145.827
BUGSAT 1 17 Jan 00:55:21 00:58:47 27° 288° (WNW) 01:02:13 437.445
AO-85 17 Jan 01:01:17 01:02:43 12° 251° (WSW) 01:04:08 145.980
BEESAT 3 17 Jan 01:18:48 01:21:53 21° 54° (NE) 01:24:58 437.485
Gurwin Techsat 1B 17 Jan 01:24:09 01:29:21 52° 101° (E) 01:34:30 435.225
Cosmos 2504 17 Jan 01:30:28 01:37:11 36° 76° (ENE) 01:43:39 435.465 / 435.565
YUBILEINY 17 Jan 01:36:59 01:45:51 84° 83° (E) 01:54:38 435.215
AIST 1 17 Jan 01:39:11 01:43:18 49° 267° (W) 01:47:24
ITUPSAT 1 17 Jan 01:41:06 01:45:49 72° 76° (ENE) 01:50:34 437.325
Oscar 19 17 Jan 01:41:51 01:46:51 51° 287° (WNW) 01:51:49 437.125/150
RS-15 17 Jan 01:43:34 01:53:57 33° 316° (NW) 02:04:43 29.354- 29.394
BEESAT 2 17 Jan 01:54:48 01:58:01 22° 54° (NE) 02:01:13 435.950
TISAT 1 17 Jan 01:58:28 01:59:27 11° 267° (W) 02:00:26 437.305
AUBIESAT-1 17 Jan 02:07:13 02:10:34 22° 66° (ENE) 02:13:47 437.475
AO-7 17 Jan 02:11:37 02:17:59 24° 96° (E) 02:24:17 29.400- 29.500
ITAMSAT 1 17 Jan 02:16:21 02:20:55 31° 98° (E) 02:25:28 435.822/435.867
Cosmos 2491 17 Jan 02:18:37 02:27:20 86° 277° (W) 02:36:06 435.465 / 435.565
BEESAT 17 Jan 02:18:44 02:23:12 42° 261° (W) 02:27:42 436.000
SWISSCUBE 17 Jan 02:20:06 02:24:26 36° 262° (W) 02:28:48 437.505
KKS-1 17 Jan 02:21:46 02:24:30 16° 68° (ENE) 02:27:14 437.445
PCSat 17 Jan 02:33:27 02:36:27 15° 310° (NW) 02:39:29 145.827
MOZHAYETS 4 17 Jan 02:48:28 02:53:00 74° 258° (WSW) 02:57:36
PHONESAT 2.4 17 Jan 02:53:41 02:55:58 73° 333° (NNW) 02:58:17 2401.200-2431.200
BEESAT 3 17 Jan 02:56:06 02:59:27 26° 248° (WSW) 03:02:46 437.485
M-CUBED/EXP-1 PRIME 17 Jan 03:00:05 03:04:37 70° 253° (WSW) 03:08:57 437.505
CUSAT 1 17 Jan 03:04:09 03:08:24 60° 93° (E) 03:14:02 437.405
Gurwin Techsat 1B 17 Jan 03:05:33 03:08:48 17° 295° (WNW) 03:12:03 435.225
DANDE 17 Jan 03:19:28 03:20:57 12° 82° (E) 03:22:33 436.750
Cosmos 2504 17 Jan 03:24:01 03:30:19 32° 273° (W) 03:36:28 435.465 / 435.565
CUBESAT XI-V 17 Jan 03:24:04 03:28:18 35° 72° (ENE) 03:32:35 437.345
STARS 17 Jan 03:24:21 03:28:22 36° 72° (ENE) 03:32:22 437.465
BEESAT 2 17 Jan 03:32:24 03:35:44 25° 248° (WSW) 03:39:02 435.950
YUBILEINY 17 Jan 03:36:42 03:41:25 16° 281° (W) 03:46:09 435.215
AUBIESAT-1 17 Jan 03:40:55 03:44:46 29° 257° (WSW) 03:48:28 437.475
ITAMSAT 1 17 Jan 03:55:56 04:00:13 27° 291° (WNW) 04:04:29 435.822/435.867
KKS-1 17 Jan 03:56:34 04:00:42 38° 261° (W) 04:04:52 437.445
AO-7 17 Jan 04:02:54 04:11:08 64° 291° (WNW) 04:19:19 29.400- 29.500
RS-15 17 Jan 04:07:32 04:12:17 13° 350° (N) 04:17:04 29.354- 29.394
Cosmos 2491 17 Jan 04:21:14 04:25:22 14° 294° (WNW) 04:29:32 435.465 / 435.565
BRITE-PL 17 Jan 04:24:52 04:29:38 49° 98° (E) 04:34:00 437.365/2234.400
PHONESAT 2.4 17 Jan 04:28:46 04:30:25 17° 351° (N) 04:32:05 2401.200-2431.200
GOMX 1 17 Jan 04:48:41 04:52:35 30° 96° (E) 04:56:17 467.674
CUSAT 1 17 Jan 04:49:23 04:51:17 12° 298° (WNW) 04:53:19 437.405
AIST 2 17 Jan 04:55:45 04:59:46 39° 58° (ENE) 05:03:43 435.215
DANDE 17 Jan 05:00:24 05:03:08 23° 289° (WNW) 05:06:29 436.750
HORYU 2 17 Jan 05:01:14 05:05:35 53° 101° (E) 05:09:56 437.375
STARS 17 Jan 05:02:05 05:04:45 16° 265° (W) 05:07:27 437.465
CUBESAT XI-V 17 Jan 05:02:30 05:05:43 18° 266° (W) 05:08:58 437.345
STRAND 1 17 Jan 05:16:33 05:19:46 17° 66° (ENE) 05:22:59 437.568
Cubesat XI-IV 17 Jan 05:20:24 05:24:55 28° 97° (E) 05:29:27 437.490
O/OREOS (USA 219) 17 Jan 05:27:43 05:30:24 16° 100° (E) 05:33:05 437.305
NOAA 15 17 Jan 05:42:31 05:47:40 50° 100° (E) 05:52:47 137.62
DOVE 4 17 Jan 05:46:34 05:50:39 50° 99° (E) 05:54:40 437.250
HO-68 17 Jan 05:50:15 05:51:01 10° 90° (E) 05:51:48 435.675
Cosmos 2499 17 Jan 05:54:30 06:00:16 26° 74° (ENE) 06:05:57 435.465 / 435.565
AO-7 17 Jan 06:00:01 06:02:15 11° 309° (NW) 06:04:28 29.400- 29.500
PHONESAT 2.4 17 Jan 06:03:32 06:05:08 16° 8° (N) 06:06:44 2401.200-2431.200
BRITE-PL 17 Jan 06:04:58 06:07:32 14° 295° (WNW) 06:10:00 437.365/2234.400
CINEMA 3 17 Jan 06:06:14 06:08:53 16° 95° (E) 06:11:34 145.822/145.860
LilacSat-2 17 Jan 06:09:03 06:12:51 60° 284° (WNW) 06:16:40 437.200
ISS 17 Jan 06:11:39 06:14:52 63° 42° (NE) 06:18:05 145.825
CUTE-I 17 Jan 06:17:45 06:23:04 76° 285° (WNW) 06:28:24 437.470
GONETS M04 17 Jan 06:23:37 06:31:48 40° 77° (ENE) 06:39:56
RS-15 17 Jan 06:24:34 06:32:33 19° 28° (NNE) 06:40:22 29.354- 29.394
GOMX 1 17 Jan 06:27:22 06:30:24 18° 292° (WNW) 06:33:21 467.674
NOAA 18 17 Jan 06:33:48 06:39:17 79° 103° (ESE) 06:44:43 137.9125
AIST 2 17 Jan 06:35:27 06:37:51 15° 252° (WSW) 06:40:16 435.215
HORYU 2 17 Jan 06:40:01 06:41:37 12° 295° (WNW) 06:43:15 437.375
CUTE 1.7 + AOD 2 17 Jan 06:52:39 06:56:32 32° 98° (E) 07:00:23 437.475
STRAND 1 17 Jan 06:53:39 06:58:31 47° 260° (W) 07:03:26 437.568
Cubesat XI-IV 17 Jan 07:00:18 07:04:53 30° 291° (WNW) 07:09:29 437.490
O/OREOS (USA 219) 17 Jan 07:05:18 07:09:27 36° 294° (WNW) 07:13:36 437.305
CANX-2 17 Jan 07:20:44 07:25:04 89° 101° (E) 07:29:21 2200.000
NOAA 15 17 Jan 07:23:35 07:26:58 17° 295° (WNW) 07:30:22 137.62
CUBEBUG 2 17 Jan 07:24:48 07:28:39 31° 98° (E) 07:32:35 437.445
DOVE 4 17 Jan 07:27:20 07:27:50 10° 294° (WNW) 07:28:20 437.250
HO-68 17 Jan 07:32:21 07:39:34 82° 105° (ESE) 07:46:43 435.675
PHONESAT 2.4 17 Jan 07:37:19 07:39:37 58° 23° (NNE) 07:41:55 2401.200-2431.200
Oscar 11 17 Jan 07:37:20 07:38:57 12° 92° (E) 07:40:32 145.826/435.025
SEEDS 17 Jan 07:39:37 07:43:53 82° 100° (E) 07:48:07 437.485
CINEMA 3 17 Jan 07:42:22 07:46:03 31° 287° (WNW) 07:49:48 145.822/145.860
SO-50 17 Jan 07:45:34 07:50:11 53° 115° (ESE) 07:54:45 436.795
Cosmos 2499 17 Jan 07:46:52 07:53:31 43° 270° (W) 08:00:05 435.465 / 435.565
COMPASS 1 17 Jan 07:52:07 07:56:20 74° 101° (E) 08:00:30 437.405
UWE-3 17 Jan 08:00:41 08:04:56 51° 100° (E) 08:09:16 435.000/436.395/437.385
UNISAT 6 17 Jan 08:01:11 08:02:18 11° 66° (ENE) 08:03:23 437.425
FUNcube-1 17 Jan 08:07:05 08:10:59 31° 98° (E) 08:14:57 145.935
AAUSAT CUBESAT 2 17 Jan 08:07:11 08:11:24 85° 102° (ESE) 08:15:33 437.432
TIGRISAT 17 Jan 08:14:18 08:16:42 15° 68° (ENE) 08:19:04 435.000
NOAA 18 17 Jan 08:17:24 08:19:12 12° 298° (WNW) 08:21:00 137.9125
GONETS M04 17 Jan 08:20:32 08:28:25 38° 273° (W) 08:36:18
DELFI C3 17 Jan 08:23:24 08:24:52 12° 93° (E) 08:26:20 145.870
ANTELSAT 17 Jan 08:27:30 08:30:51 23° 71° (ENE) 08:34:12 437.575/2403.000
ZACube-1 17 Jan 08:27:40 08:32:00 62° 101° (E) 08:36:25 437.345
CUTE 1.7 + AOD 2 17 Jan 08:29:16 08:32:04 17° 291° (WNW) 08:34:52 437.475
RS-15 17 Jan 08:36:16 08:48:27 60° 56° (NE) 09:00:05 29.354- 29.394
JAS-2 17 Jan 08:38:40 08:39:29 10° 60° (ENE) 08:40:19 435.910
PRISM 17 Jan 08:40:13 08:44:18 57° 259° (W) 08:48:25 437.425
CUBEBUG 2 17 Jan 09:02:02 09:05:02 19° 290° (WNW) 09:08:06 437.445
HUMSAT D 17 Jan 09:11:03 09:14:40 26° 97° (E) 09:18:17 437.325/437.525
Oscar 11 17 Jan 09:11:05 09:15:16 46° 286° (WNW) 09:19:26 145.826/435.025
PHONESAT 2.4 17 Jan 09:12:35 09:13:35 12° 216° (SW) 09:14:33 2401.200-2431.200
HO-68 17 Jan 09:22:14 09:26:23 17° 301° (WNW) 09:30:33 435.675
SO-50 17 Jan 09:27:58 09:30:55 16° 310° (NW) 09:33:52 436.795
UNISAT 6 17 Jan 09:34:20 09:38:31 51° 260° (W) 09:42:41 437.425
UWE-3 17 Jan 09:39:20 09:40:56 12° 293° (WNW) 09:42:34 435.000/436.395/437.385
PCSat 17 Jan 09:39:41 09:44:07 25° 55° (NE) 09:48:31 145.827
FUNcube-1 17 Jan 09:43:55 09:46:58 19° 290° (WNW) 09:50:04 145.935
TIGRISAT 17 Jan 09:49:05 09:53:02 37° 262° (W) 09:56:59 435.000
DELFI C3 17 Jan 09:56:04 09:59:48 38° 286° (WNW) 10:03:29 145.870
ANTELSAT 17 Jan 10:04:01 10:07:26 23° 264° (W) 10:10:52 437.575/2403.000
BY70-1 17 Jan 10:06:14 10:09:00 23° 96° (E) 10:11:37 436.1900
QB50P1 17 Jan 10:09:57 10:13:38 30° 72° (ENE) 10:17:17 145.935-145.965
POLYITAN 1 17 Jan 10:12:52 10:16:37 33° 72° (ENE) 10:20:22 437.675
QB50P2 17 Jan 10:13:51 10:17:43 36° 73° (ENE) 10:21:34 145.880/145.840
JAS-2 17 Jan 10:18:29 10:23:40 78° 257° (WSW) 10:29:13 435.910
CUBEBUG 1 17 Jan 10:29:10 10:31:06 13° 93° (E) 10:33:03 437.445
POPSAT HIP 1 17 Jan 10:35:58 10:40:06 63° 76° (ENE) 10:44:15 437.405
ESTCUBE 1 17 Jan 10:41:32 10:45:41 34° 98° (E) 10:49:47 437.505/2401.250
HUMSAT D 17 Jan 10:46:52 10:50:05 21° 290° (WNW) 10:53:17 437.325/437.525
RS-15 17 Jan 10:49:42 11:00:13 36° 255° (WSW) 11:10:25 29.354- 29.394
DUCHIFAT 1 17 Jan 10:51:13 10:55:23 84° 77° (ENE) 10:59:34 145.980
NANOSAT C BR1 17 Jan 10:54:52 10:59:03 79° 259° (W) 11:03:15 145.865
VELOX 1 17 Jan 11:08:29 11:11:58 23° 96° (E) 11:15:27 145.980
Oscar 19 17 Jan 11:17:37 11:20:40 16° 65° (ENE) 11:23:43 437.125/150
PCSat 17 Jan 11:22:34 11:27:34 38° 251° (WSW) 11:32:32 145.827
BY70-1 17 Jan 11:37:23 11:39:06 13° 292° (WNW) 11:40:47 436.1900
BUGSAT 1 17 Jan 11:40:07 11:44:13 73° 258° (WSW) 11:48:17 437.445
50 SAT 17 Jan 11:40:40 11:44:03 40° 99° (E) 11:47:23 437.505
QB50P1 17 Jan 11:46:36 11:49:23 17° 265° (W) 11:52:10 145.935-145.965
POLYITAN 1 17 Jan 11:49:55 11:52:26 16° 266° (W) 11:54:59 437.675
QB50P2 17 Jan 11:51:21 11:53:35 14° 266° (W) 11:55:50 145.880/145.840
DX 1 17 Jan 11:51:47 11:55:43 33° 99° (E) 11:59:36 434.975-435.025
UKube-1 17 Jan 11:58:00 12:01:42 28° 98° (E) 12:05:22 .
SPROUT 17 Jan 12:02:29 12:06:44 78° 102° (ESE) 12:10:59 437.525
CUBEBUG 1 17 Jan 12:03:28 12:07:32 42° 287° (WNW) 12:11:35 437.445
AISAT 17 Jan 12:10:31 12:14:50 57° 285° (WNW) 12:19:06 437.250
ESTCUBE 1 17 Jan 12:19:06 12:22:10 18° 292° (WNW) 12:25:12 437.505/2401.250
Cosmos 2491 17 Jan 12:34:21 12:42:26 39° 76° (ENE) 12:50:29 435.465 / 435.565
YUBILEINY 17 Jan 12:39:51 12:45:19 18° 80° (E) 12:50:47 435.215
Gurwin Techsat 1B 17 Jan 12:41:09 12:46:19 56° 74° (ENE) 12:51:31 435.225
VELOX 1 17 Jan 12:44:44 12:48:19 25° 290° (WNW) 12:51:53 145.980
Oscar 19 17 Jan 12:54:25 12:59:29 53° 260° (W) 13:04:35 437.125/150
AO-7 17 Jan 13:06:49 13:13:09 25° 59° (ENE) 13:19:29 29.400- 29.500
DX 1 17 Jan 13:28:46 13:31:35 17° 292° (WNW) 13:34:24 434.975-435.025
AO-85 17 Jan 13:28:52 13:33:25 39° 114° (ESE) 13:37:40 145.980
ITAMSAT 1 17 Jan 13:30:29 13:35:00 32° 70° (ENE) 13:39:32 435.822/435.867
UKube-1 17 Jan 13:34:22 13:37:31 20° 291° (WNW) 13:40:39 .
CUSAT 1 17 Jan 13:40:15 13:47:48 44° 75° (ENE) 13:54:51 437.405
TISAT 1 17 Jan 13:42:37 13:46:41 52° 285° (WNW) 13:50:43 437.305
ITUPSAT 1 17 Jan 13:46:07 13:50:05 25° 97° (E) 13:54:02 437.325
DANDE 17 Jan 13:56:51 14:02:44 23° 72° (ENE) 14:08:57 436.750
Cosmos 2504 17 Jan 14:02:29 14:10:22 39° 88° (E) 14:17:56 435.465 / 435.565
AIST 1 17 Jan 14:03:37 14:08:00 72° 277° (W) 14:12:22
BEESAT 17 Jan 14:22:24 14:27:10 67° 102° (ESE) 14:31:55 436.000
SWISSCUBE 17 Jan 14:23:39 14:28:27 79° 102° (ESE) 14:33:15 437.505
Gurwin Techsat 1B 17 Jan 14:23:47 14:26:33 14° 267° (W) 14:29:20 435.225
Cosmos 2491 17 Jan 14:31:14 14:39:06 39° 273° (W) 14:46:59 435.465 / 435.565
YUBILEINY 17 Jan 14:32:14 14:41:01 76° 277° (W) 14:49:54 435.215
MOZHAYETS 4 17 Jan 14:47:38 14:51:51 34° 98° (E) 14:56:05
AO-7 17 Jan 14:56:54 15:05:10 67° 255° (WSW) 15:13:32 29.400- 29.500
JUGNU 17 Jan 15:06:55 15:10:52 18° 172° (S) 15:14:50 437.505
ITAMSAT 1 17 Jan 15:10:13 15:14:25 25° 264° (W) 15:18:38 435.822/435.867
AO-85 17 Jan 15:10:27 15:13:54 20° 307° (NW) 15:17:11 145.980
CUSAT 1 17 Jan 15:22:29 15:29:28 35° 272° (W) 15:35:59 437.405
AUBIESAT-1 17 Jan 15:23:32 15:26:05 20° 101° (E) 15:28:35 437.475
ITUPSAT 1 17 Jan 15:23:46 15:27:48 27° 290° (WNW) 15:31:50 437.325
CUBESAT XI-V 17 Jan 15:26:36 15:28:21 12° 92° (E) 15:30:06 437.345
BRITE-PL 17 Jan 15:30:06 15:35:21 41° 72° (ENE) 15:40:39 437.365/2234.400
DANDE 17 Jan 15:38:04 15:45:49 71° 265° (W) 15:54:07 436.750
O/OREOS (USA 219) 17 Jan 15:40:48 15:43:44 17° 61° (ENE) 15:46:41 437.305
KKS-1 17 Jan 15:51:04 15:55:23 53° 100° (E) 15:59:43 437.445
GOMX 1 17 Jan 15:51:49 15:56:19 27° 70° (ENE) 16:00:43 467.674
Cosmos 2504 17 Jan 15:55:30 16:03:35 40° 283° (WNW) 16:11:21 435.465 / 435.565
HORYU 2 17 Jan 15:55:30 15:59:19 29° 71° (ENE) 16:03:08 437.375
CUTE-I 17 Jan 15:59:11 16:01:24 13° 63° (ENE) 16:03:37 437.470
BEESAT 17 Jan 16:03:04 16:04:19 11° 296° (WNW) 16:05:34 436.000
M-CUBED/EXP-1 PRIME 17 Jan 16:17:51 16:21:01 39° 291° (WNW) 16:24:05 437.505
NOAA 18 17 Jan 16:19:59 16:21:40 11° 62° (ENE) 16:23:20 137.9125
SO-50 17 Jan 16:21:49 16:24:43 17° 50° (NE) 16:27:36 436.795
MOZHAYETS 4 17 Jan 16:25:29 16:28:44 19° 291° (WNW) 16:31:58
SRMSAT 17 Jan 16:31:04 16:33:59 14° 166° (SSE) 16:36:54 437.500
YUBILEINY 17 Jan 16:36:25 16:39:17 12° 296° (WNW) 16:42:11 435.215
Cubesat XI-IV 17 Jan 16:38:30 16:43:08 31° 70° (ENE) 16:47:46 437.490
BEESAT 3 17 Jan 16:41:35 16:45:23 59° 300° (WNW) 16:49:16 437.485
LilacSat-2 17 Jan 16:47:01 16:50:25 33° 73° (ENE) 16:53:50 437.200
DOVE 4 17 Jan 16:47:14 16:51:54 36° 73° (ENE) 16:56:22 437.250
STARS 17 Jan 16:53:21 16:57:40 64° 284° (WNW) 17:01:59 437.465
JUGNU 17 Jan 16:54:52 16:59:13 21° 182° (S) 17:03:37 437.505
AUBIESAT-1 17 Jan 16:58:19 17:00:20 15° 295° (WNW) 17:02:20 437.475
NOAA 15 17 Jan 16:58:29 17:03:36 54° 73° (ENE) 17:08:45 137.62
CUBESAT XI-V 17 Jan 17:01:25 17:05:59 53° 286° (WNW) 17:10:30 437.345
CINEMA 3 17 Jan 17:06:17 17:07:01 10° 67° (ENE) 17:07:45 145.822/145.860
BRITE-PL 17 Jan 17:09:26 17:13:51 23° 266° (W) 17:18:19 437.365/2234.400
O/OREOS (USA 219) 17 Jan 17:19:06 17:23:14 37° 256° (WSW) 17:27:23 437.305
BEESAT 2 17 Jan 17:19:17 17:23:08 53° 301° (WNW) 17:27:02 435.950
DANDE 17 Jan 17:25:25 17:27:29 11° 278° (W) 17:29:35 436.750
GOMX 1 17 Jan 17:29:16 17:34:10 33° 263° (W) 17:38:59 467.674
KKS-1 17 Jan 17:29:55 17:31:27 12° 295° (WNW) 17:32:59 437.445
HORYU 2 17 Jan 17:32:40 17:35:50 19° 264° (W) 17:39:02 437.375
CUTE-I 17 Jan 17:35:31 17:40:48 69° 258° (WSW) 17:46:06 437.470
CUTE 1.7 + AOD 2 17 Jan 17:42:41 17:44:59 14° 68° (ENE) 17:47:18 437.475
NOAA 18 17 Jan 17:56:02 18:01:33 82° 256° (WSW) 18:07:05 137.9125
HO-68 17 Jan 17:56:34 18:03:09 40° 67° (ENE) 18:09:45 435.675
SO-50 17 Jan 18:01:07 18:05:24 45° 246° (WSW) 18:09:38 436.795
CANX-2 17 Jan 18:09:27 18:13:18 35° 73° (ENE) 18:17:12 2200.000
SRMSAT 17 Jan 18:18:09 18:22:29 21° 175° (S) 18:26:48 437.500
Cubesat XI-IV 17 Jan 18:18:44 18:23:08 26° 263° (W) 18:27:34 437.490
CUBEBUG 2 17 Jan 18:20:23 18:22:50 15° 69° (ENE) 18:25:18 437.445
LilacSat-2 17 Jan 18:23:20 18:24:47 12° 267° (W) 18:26:14 437.200
Cosmos 2499 17 Jan 18:25:39 18:32:30 27° 86° (E) 18:39:00 435.465 / 435.565
DOVE 4 17 Jan 18:25:45 18:29:33 21° 265° (W) 18:33:15 437.250
SEEDS 17 Jan 18:27:19 18:31:03 32° 73° (ENE) 18:34:48 437.485
COMPASS 1 17 Jan 18:38:58 18:42:31 28° 72° (ENE) 18:46:06 437.405
CINEMA 3 17 Jan 18:39:10 18:43:41 59° 260° (W) 18:48:00 145.822/145.860
NOAA 15 17 Jan 18:40:40 18:43:37 15° 267° (W) 18:46:35 137.62
JUGNU 17 Jan 18:44:06 18:47:35 16° 192° (SSW) 18:51:05 437.505
AIST 2 17 Jan 18:50:02 18:53:08 21° 110° (ESE) 18:56:15 435.215
AAUSAT CUBESAT 2 17 Jan 18:53:22 18:57:02 31° 72° (ENE) 19:00:43 437.432
UWE-3 17 Jan 18:54:27 18:57:46 23° 71° (ENE) 19:01:05 435.000/436.395/437.385
FUNcube-1 17 Jan 19:00:15 19:02:26 14° 68° (ENE) 19:04:37 145.935
STRAND 1 17 Jan 19:07:51 19:13:00 82° 103° (ESE) 19:18:09 437.568
CUTE 1.7 + AOD 2 17 Jan 19:16:30 19:20:26 38° 262° (W) 19:24:25 437.475
GONETS M04 17 Jan 19:19:15 19:27:33 52° 90° (E) 19:35:55
ZACube-1 17 Jan 19:20:02 19:23:32 27° 72° (ENE) 19:27:02 437.345
HO-68 17 Jan 19:44:31 19:50:50 33° 262° (W) 19:57:12 435.675
CANX-2 17 Jan 19:46:51 19:49:14 15° 267° (W) 19:51:38 2200.000
CUBEBUG 2 17 Jan 19:55:20 19:59:10 33° 262° (W) 20:02:58 437.445
HUMSAT D 17 Jan 20:00:51 20:01:48 11° 67° (ENE) 20:02:46 437.325/437.525
Oscar 11 17 Jan 20:01:14 20:05:31 77° 78° (ENE) 20:09:51 145.826/435.025
SEEDS 17 Jan 20:04:07 20:06:46 16° 266° (W) 20:09:26 437.485
SRMSAT 17 Jan 20:06:46 20:11:01 20° 186° (S) 20:15:16 437.500
COMPASS 1 17 Jan 20:15:07 20:18:01 18° 265° (W) 20:20:58 437.405
Cosmos 2499 17 Jan 20:16:48 20:25:10 53° 280° (W) 20:33:02 435.465 / 435.565
PRISM 17 Jan 20:26:03 20:29:26 24° 97° (E) 20:32:47 437.425
AIST 2 17 Jan 20:27:54 20:31:24 27° 305° (NW) 20:34:59 435.215
AAUSAT CUBESAT 2 17 Jan 20:29:53 20:32:30 16° 266° (W) 20:35:10 437.432
UWE-3 17 Jan 20:30:57 20:34:08 21° 264° (W) 20:37:18 435.000/436.395/437.385
FUNcube-1 17 Jan 20:34:32 20:38:19 36° 262° (W) 20:42:09 145.935
DELFI C3 17 Jan 20:36:57 20:40:53 63° 76° (ENE) 20:44:52 145.870
ZACube-1 17 Jan 20:56:56 20:59:47 18° 265° (W) 21:02:39 437.345
ISS 17 Jan 21:13:56 21:15:37 13° 127° (SE) 21:17:18 145.825
GONETS M04 17 Jan 21:17:26 21:24:38 29° 287° (WNW) 21:31:55
UNISAT 6 17 Jan 21:29:32 21:33:44 41° 99° (E) 21:38:01 437.425
JAS-2 17 Jan 21:31:12 21:36:30 21° 94° (E) 21:41:59 435.910
HUMSAT D 17 Jan 21:33:00 21:36:55 48° 261° (W) 21:40:54 437.325/437.525
ESTCUBE 1 17 Jan 21:37:40 21:40:59 20° 69° (ENE) 21:44:19 437.505/2401.250
TIGRISAT 17 Jan 21:43:42 21:48:04 57° 100° (E) 21:52:31 435.000
BY70-1 17 Jan 21:47:07 21:49:48 45° 75° (ENE) 21:52:46 436.1900
SRMSAT 17 Jan 21:57:02 21:59:31 13° 195° (SSW) 22:01:58 437.500
ANTELSAT 17 Jan 21:58:07 22:02:33 89° 297° (WNW) 22:07:06 437.575/2403.000
PRISM 17 Jan 22:01:30 22:04:32 20° 291° (WNW) 22:07:33 437.425
VELOX 1 17 Jan 22:03:08 22:05:17 13° 66° (ENE) 22:07:26 145.980
